Meeker, CO

11:28 PM MST on January 22, 2018 (GMT -0700)
Meeker

Weather History for KEEO - October, 2013

Change the Weather History Date:

Tuesday, October 8, 2013

  Actual Average Record
Temperature  
Mean Temperature 49 °F 48 °F  
Max Temperature 67 °F 64 °F 88 °F (1999)
Min Temperature 31 °F 31 °F 18 °F (2012)
Degree Days  
Heating Degree Days 16 17  
Month to date heating degree days 162 128  
Since 1 July heating degree days 374 435  
Cooling Degree Days 0 0  
Month to date cooling degree days 0 0  
Year to date cooling degree days 324 172  
Moisture  
Dew Point 30 °F    
Average Humidity 57    
Maximum Humidity 92    
Minimum Humidity 22    
Precipitation  
Precipitation 0.00 in 0.06 in 0.20 in (2001)
Month to date precipitation 0.89 0.51  
Year to date precipitation 13.92 12.13  
Sea Level Pressure  
Sea Level Pressure 29.83 in    
Wind  
Wind Speed 7 mph (SSE)    
Max Wind Speed 26 mph    
Max Gust Speed 36 mph    
Visibility 10 miles    
Events      
T = Trace of Precipitation, MM = Missing Value Source: NWS Daily Summary

Daily Weather History Graph

Daily Weather History Graph

Search for Another Location

Airport or City:

Trip Planner

Search our weather history database for the weather conditions in past years. The results will help you decide how hot, cold, wet, or windy it might be!

Date:

Astronomy

Oct. 08, 2013 Rise Set
Actual Time 7:15 AM MDT 6:42 PM MDT
Civil Twilight 6:48 AM MDT 7:09 PM MDT
Nautical Twilight 6:16 AM MDT 7:40 PM MDT
Astronomical Twilight 5:45 AM MDT 8:12 PM MDT
Moon 11:12 AM MDT (10/8) 9:21 PM MDT (10/8)
Length of Visible Light 12h 21m
Length of Day
11h 26m
Waxing Crescent, 16% of the Moon is Illuminated
Oct 8
Waxing Crescent
Oct 11
First Quarter
Oct 18
Full
Oct 26
Last Quarter
Nov 3
New

Hourly Weather History & Observations

Time (MDT) Temp. Windchill Dew Point Humidity Pressure Visibility Wind Dir Wind Speed Gust Speed Precip Events Conditions
12:53 AM 42.1 °F - 33.1 °F 70% 29.93 in 10.0 mi Calm Calm - N/A   Clear
1:53 AM 39.0 °F - 33.1 °F 79% 29.92 in 10.0 mi Calm Calm - N/A   Clear
2:53 AM 39.9 °F 35.8 °F 30.9 °F 70% 29.90 in 10.0 mi East 5.8 mph - N/A   Clear
3:53 AM 36.0 °F - 30.9 °F 82% 29.88 in 10.0 mi Calm Calm - N/A   Clear
4:53 AM 35.1 °F - 30.9 °F 85% 29.88 in 10.0 mi Calm Calm - N/A   Clear
5:53 AM 32.0 °F 28.7 °F 30.0 °F 92% 29.91 in 10.0 mi NE 3.5 mph - N/A   Clear
6:53 AM 33.1 °F - 28.0 °F 82% 29.91 in 10.0 mi Calm Calm - N/A   Clear
7:53 AM 35.1 °F - 30.0 °F 82% 29.94 in 10.0 mi Calm Calm - N/A   Clear
8:53 AM 43.0 °F - 33.1 °F 68% 29.92 in 10.0 mi Calm Calm - N/A   Clear
9:53 AM 48.9 °F - 32.0 °F 52% 29.88 in 10.0 mi Calm Calm - N/A   Clear
10:53 AM 63.0 °F - 28.9 °F 28% 29.79 in 10.0 mi SW 18.4 mph 25.3 mph N/A   Clear
11:53 AM 64.0 °F - 26.1 °F 24% 29.79 in - North - - N/A   Unknown
12:53 PM 66.0 °F - 26.1 °F 22% 29.77 in - North - - N/A   Clear
1:53 PM 66.0 °F - 26.1 °F 22% 29.74 in 10.0 mi South 18.4 mph 28.8 mph N/A   Clear
2:53 PM 66.9 °F - 26.1 °F 21% 29.71 in 10.0 mi SSW 17.3 mph 31.1 mph N/A   Partly Cloudy
3:53 PM 66.9 °F - 28.0 °F 23% 29.72 in 10.0 mi SW 17.3 mph 23.0 mph N/A   Scattered Clouds
4:53 PM 64.0 °F - 28.0 °F 26% 29.73 in 10.0 mi SW 20.7 mph 26.5 mph N/A   Clear
5:53 PM 62.1 °F - 28.9 °F 29% 29.76 in 10.0 mi SW 12.7 mph - N/A   Clear
6:53 PM 55.0 °F - 30.9 °F 40% 29.79 in 10.0 mi SSW 3.5 mph - N/A   Clear
7:53 PM 48.0 °F - 34.0 °F 58% 29.82 in 10.0 mi Calm Calm - N/A   Clear
8:53 PM 43.0 °F 40.3 °F 33.1 °F 68% 29.82 in 10.0 mi NE 4.6 mph - N/A   Clear
9:53 PM 43.0 °F 39.5 °F 32.0 °F 65% 29.81 in 10.0 mi NE 5.8 mph - N/A   Clear
10:53 PM 43.0 °F 41.3 °F 30.9 °F 62% 29.75 in 10.0 mi NNE 3.5 mph - N/A   Clear
11:53 PM 42.1 °F 38.4 °F 30.0 °F 62% 29.75 in 10.0 mi ENE 5.8 mph - N/A   Partly Cloudy